sat.trackr.live / text

‹ back to catalog

STARLINK-35511

NORAD 66344 · 2025-253AB

PAYLOAD ACTIVE UNKNOWN

§ Identity

Operator
Country
US
Launch date
2025-11-06
Launch site
AFETR
Launch vehicle
Mass (kg)
RCS (m²)

Purposes: comms

External: N2YO · Heavens-Above · Gunter

§ Orbital elements

Epoch: 2026-09-20T02:46:09.308064Z

Period
94.27 min
Inclination
42.9993°
Eccentricity
0.0001043
Mean motion
15.27587110 rev/d
Perigee alt
482.3 km
Apogee alt
483.7 km
Semi-major
6,861.2 km
B*
2.8007e-4
RAAN
194.1157°
Arg perigee
271.2035°
Mean anomaly
88.8697°
Rev number
4,998

§ Raw data

STARLINK-355111 66344U 25253AB  26263.11538551  .00007454  00000+0  28007-3 0  99972 66344  42.9993 194.1157 0001043 271.2035  88.8697 15.27587110 49980

JSON: /api/v1/satellites/66344 · /tle

For live sub-satellite position, see the globe view (requires WebGL).

§ Visibility from observer

Set your observer location to see the next 7 days of passes ≥ 10°. The values pass through the URL so the page stays shareable.

No JS? Fill the form by hand. The geolocation button needs JavaScript.